Presure
218 204 211 214 210 208 216 211 205 164 134 192 199 141 135 133 133 134 130 132 134 134 136 178 166 160 125 123 126 133 132 145 160 159 126 128 132 133 191 181 180 145 144
213 209 205 203 207 199 194 199 199 193 191 197 181 133 124 126 189 148 147 135 155 139 170 167 126 135 133 125 156 150 137 151 133 131 117 125 132 132 168 141 149 173 200
198 210 211 206 196 205 202 198 200 202 202 197 189 182 194 147 152 125 162 138 199 206 201 184 179 175 184 179 150 152 150 190 173 156 156 151 157 181 172 163 173 185 187
196 215 209 201 197 181 196 202 190 181 181 201 200 189 186 202 198 188 184 186 191 200 195 188 185 183 178 172 170 173 179 182 163 191 179 164 195 194 174 167 204 199 128
202 193 193 184 181 180 181 181 201 211 174 177 174 175 175 189 175 174 179 181 185 183 180 181 190 187 184 188 182 184 181 181 198 192 194 197 195 192 196 199 201 200 196
195 200 200 198 196 199 195 194 195 194 195 193 189 200 198 196 195 192 191 190 189 190 190 191 193 194 195 196 199 201 205 208 209 210 212 208 204 212 217 219 207 207 215
201 200 198 198 197 194 194 195 195 194 195 195 193 193 194 193 190 195 194 194 196 198 199 199 203 204 205 206 208 213 214 214 223 224 217 214 213 223 218 216 218 217 221
203 201 199 197 196 196 196 195 194 192 193 194 192 193 194 194 193 195 199 203 203 204 210 215 216 220 221 212 198 197 195 193 193 202 212 211 205 211 220 209 220 216 213
188 186 183 206 209 207 201 199 199 201 201 202 203 202 202 206 207 207 207 191 195 205 195 195 204 206 206 210 207 208 211 215 216 219 219 219 222 225 230 227 225 210 209
199 200 199 203 197 204 204 207 210 209 213 220 216 217 206 196 199 199 201 203 203 201 202 200 200 201 206 209 209 216 219 220 218 218 219 218 219 221 222 222 225 235 227
202 203 202 202 202 200 197 193 193 194 200 203 203 199 197 197 197 199 202 204 203 204 205 209 211 207 220 217 230 216 220 223 217 220 223 227 229 231 230 238 241 241 244
207 203 204 203 204 203 201 196 197 197 193 190 194 195 198 200 201 203 203 204 206 210 211 220 216 225 221 220 219 225 229 230 234 226 231 232 246 242 243 241 231 253 255
222 215 207 203 202 205 205 203 202 202 204 207 202 202 200 200 199 207 209 208 212 222 217 224 228 228 224 229 229 233 240 247 251 253 253 251 242 249 247 242 244 265 259
234 228 223 221 220 217 217 217 210 208 214 217 216 214 212 213 214 217 220 221 223 229 229 234 227 236 236 239 247 246 240 241 241 244 246 243 255 265 265 294 313 317 303
231 235 228 228 228 226 224 223 223 219 219 219 221 225 225 226 226 227 223 219 231 227 235 243 240 241 233 233 240 248 259 260 254 258 263 306 310 306 298 304 307 314 311
226 237 238 229 224 227 226 227 227 228 225 216 228 216 226 229 229 228 229 233 241 237 235 238 238 238 247 239 241 252 254 266 265 298 296 295 292 291 288 264 256 245 229
231 231 231 238 235 228 224 223 222 220 225 220 232 228 228 232 238 241 234 232 236 238 232 239 242 247 250 252 268 289 304 290 287 280 271 253 229 232 238 240 241 242 245
235 229 235 235 233 240 238 233 232 229 226 228 232 240 240 239 240 239 237 235 237 244 251 253 259 266 279 289 286 281 275 262 244 237 233 239 241 249 278 294 296 305 325
250 250 243 236 239 246 244 238 238 240 241 236 236 239 242 242 242 243 248 253 258 260 277 280 280 274 268 236 234 231 228 239 241 242 280 304 309 346 405 409 414 408 407
268 271 273 274 284 256 252 248 254 257 256 263 269 270 269 259 268 288 286 285 278 272 266 255 237 233 228 234 247 285 293 301 400 404 404 398 390 395 398 394 393 394 385
271 269 264 261 263 272 268 268 270 272 271 272 268 267 266 264 260 253 247 233 236 239 241 258 273 286 296 334 409 403 403 401 397 396 394 389 382 382 378 375 374 371 372
255 258 261 263 264 263 264 266 268 270 268 280 279 279 280 280 280 281 280 284 287 290 292 366 418 419 411 410 401 371 371 384 383 377 371 367 364 361 362 364 361 376 395
257 260 263 265 266 271 277 278 274 274 275 280 281 285 287 291 295 340 376 408 403 399 387 364 348 347 361 364 360 354 353 354 357 352 353 354 354 359 368 375 385 388 403
278 280 282 282 281 280 283 291 295 306 323 345 348 357 405 402 396 383 369 347 347 355 372 375 369 358 350 349 350 352 354 354 354 356 361 369 374 376 378 381 392 408 390
339 346 352 354 403 400 396 448 442 430 423 417 423 419 412 410 410 406 401 398 393 386 382 379 377 372 367 363 365 362 361 365 368 372 377 378 379 382 386 395 387 378 397
591 591 591 587 586 583 568 540 488 476 473 470 424 408 398 394 393 391 393 399 398 390 392 391 384 379 378 374 372 372 374 375 375 377 381 382 380 385 380 375 377 413 417
Wind_Speed
76 80 79 79 79 77 77 77 76 82 87 78 79 89 89 89 90 92 91 91 92 91 92 85 88 87 82 81 81 86 87 91 93 92 87 85 87 85 91 91 90 90 89
79 81 82 82 80 80 79 80 81 82 85 84 85 89 88 84 85 95 95 95 95 99 92 90 91 91 91 89 91 97 91 90 91 89 87 88 93 90 96 94 97 97 96
81 82 84 84 82 84 83 83 85 86 86 87 86 88 87 99 96 95 94 101 89 89 91 93 94 95 94 95 99 96 96 96 102 106 107 96 104 101 104 103 104 103 104
84 85 87 86 85 84 84 86 87 90 90 91 91 89 89 92 93 92 93 94 94 94 95 96 97 99 101 103 104 104 103 104 107 101 108 111 103 103 109 111 104 107 99
87 89 89 90 89 89 90 91 91 93 94 93 94 94 95 95 97 99 99 99 99 100 102 103 102 103 105 105 107 107 108 108 104 106 107 107 108 111 110 109 112 111 114
92 91 91 91 91 91 93 93 94 94 95 96 97 95 97 97 98 100 101 103 104 104 106 107 108 108 109 110 110 111 111 111 110 110 109 110 112 112 112 112 114 115 113
95 95 94 93 92 94 95 94 95 96 97 98 99 100 100 101 103 104 105 106 107 109 111 111 112 113 114 114 114 115 114 113 113 111 110 110 109 111 113 113 113 113 114
99 100 99 98 96 98 98 98 100 101 103 104 105 105 106 107 108 109 110 111 112 114 116 116 116 116 115 115 114 114 113 113 113 114 114 114 114 115 117 117 117 117 116
104 105 106 102 102 103 103 103 105 108 107 108 110 110 111 113 113 112 111 110 111 113 114 116 116 116 116 117 118 120 121 121 120 119 119 120 120 120 122 122 123 122 122
105 105 104 104 105 105 107 109 110 109 110 111 110 109 108 110 111 113 114 114 115 116 118 118 119 120 122 124 123 125 126 126 125 125 126 127 126 127 129 128 128 129 126
110 109 107 107 107 108 109 110 110 110 110 111 112 112 114 116 117 118 118 119 120 122 123 125 126 124 129 127 129 128 130 130 127 128 130 133 134 134 133 135 135 135 136
115 115 116 113 113 113 113 114 115 116 115 115 117 119 121 123 124 125 126 127 127 129 130 131 130 130 131 131 130 131 133 135 137 136 138 138 139 138 139 136 129 140 140
112 117 120 119 118 121 121 120 120 121 123 126 126 127 127 127 127 134 134 132 134 137 135 136 135 135 135 136 136 136 135 134 134 136 138 138 135 136 134 131 132 140 138
106 112 115 119 122 125 126 126 127 129 130 132 134 136 137 138 139 140 141 141 140 139 139 138 136 137 136 137 136 137 134 133 132 134 136 135 139 141 142 131 121 118 121
103 108 112 115 118 121 123 124 126 131 130 130 133 134 136 137 139 140 138 136 140 140 140 139 138 138 133 136 138 140 141 140 138 141 143 121 118 120 121 119 118 116 115
105 105 111 118 119 121 123 125 127 128 127 132 134 134 138 140 142 142 142 144 140 140 140 139 140 139 144 141 140 144 143 146 143 123 120 119 120 120 120 118 115 112 110
108 111 111 115 121 124 127 129 129 131 133 133 138 138 140 141 141 140 140 142 142 143 139 142 142 142 144 146 147 134 118 122 122 122 121 120 116 118 121 122 122 123 125
114 116 117 120 121 124 130 133 134 134 135 137 141 143 144 143 143 143 144 144 144 146 148 146 146 146 137 125 123 124 125 123 120 121 121 126 128 132 134 133 132 133 135
114 118 121 122 124 127 132 133 134 135 137 138 140 143 145 145 147 147 148 150 150 149 134 130 128 128 128 125 126 124 119 128 130 132 130 134 134 133 104 101 97 98 95
116 116 117 117 119 129 131 132 131 134 137 140 141 141 142 142 138 125 126 128 130 133 133 133 129 129 123 133 138 133 131 126 107 98 93 95 97 94 93 95 95 93 91
120 118 115 111 112 116 117 117 118 119 122 123 126 127 129 131 132 132 133 132 133 135 137 135 134 130 134 126 100 99 95 92 91 89 88 89 92 92 93 93 93 91 89
114 116 117 119 121 122 123 123 124 127 128 128 128 129 130 130 130 130 130 131 132 133 135 115 96 90 90 87 88 99 97 91 90 89 90 91 93 92 91 89 90 89 86
119 122 124 123 124 128 131 129 129 131 132 133 131 131 134 137 138 140 127 105 104 100 100 107 111 109 102 98 98 98 98 96 93 93 92 90 89 88 87 86 85 82 78
125 128 130 130 131 134 136 139 141 143 146 143 141 138 114 111 109 110 112 119 117 113 104 99 97 98 98 97 97 97 94 92 91 90 88 87 85 83 82 80 78 72 73
135 137 138 138 122 123 123 105 105 108 108 107 103 102 103 102 100 98 98 97 95 96 94 92 92 91 90 91 91 90 90 90 89 88 85 82 80 78 75 71 69 69 67
49 50 52 54 55 57 62 72 87 90 89 87 94 97 98 97 97 96 94 92 90 90 88 87 86 86 85 86 86 85 84 83 82 82 78 76 73 70 68 67 67 60 58
Wind_Direction
262 263 262 262 261 262 261 259 261 261 261 262 262 260 262 263 263 263 265 266 267 267 268 258 259 261 263 260 264 265 262 263 265 263 264 264 264 263 256 257 259 260 261
259 260 261 261 259 261 264 262 261 262 261 262 264 262 262 262 262 260 262 264 262 264 261 262 268 266 265 265 262 266 264 261 264 262 261 263 264 265 261 264 262 259 254
262 259 258 259 261 259 259 262 261 261 262 264 265 264 264 262 264 265 264 263 264 264 263 262 262 262 263 261 264 263 259 261 260 262 263 261 265 259 262 264 262 259 257
263 259 259 261 262 264 264 263 264 262 262 262 262 265 265 264 265 266 267 267 267 266 266 264 263 263 261 260 260 260 260 261 261 263 260 261 261 260 260 262 258 256 261
261 262 262 262 263 263 262 263 262 261 264 265 266 266 266 267 265 265 266 267 267 266 264 263 266 265 263 264 262 262 261 261 263 262 262 263 262 261 260 260 260 256 254
263 263 263 263 263 264 264 264 264 265 265 265 265 265 266 267 267 267 267 267 267 267 267 267 267 267 266 266 266 266 266 265 265 264 264 263 262 263 263 261 259 259 261
260 261 262 262 262 263 265 266 267 267 267 267 266 266 266 265 264 266 266 266 266 267 267 267 268 268 268 268 269 269 269 270 270 270 268 266 265 268 266 264 264 262 262
261 262 262 262 263 263 264 265 265 266 266 266 266 266 267 267 267 267 267 267 267 267 268 268 268 269 269 271 269 269 268 267 266 268 268 267 264 265 266 263 265 263 261
258 260 262 261 261 262 263 263 263 263 264 265 265 265 266 266 267 268 268 269 269 269 270 270 272 272 273 273 273 273 272 272 271 270 269 269 269 269 270 268 266 263 261
258 258 261 262 263 262 263 263 264 266 266 265 266 265 265 265 266 265 266 267 268 268 269 270 271 271 272 272 272 273 272 271 271 271 270 270 270 270 269 269 269 268 265
261 262 261 261 262 263 265 266 267 267 268 268 268 269 268 267 268 269 270 270 271 271 271 272 272 273 273 273 272 273 274 274 274 274 273 272 272 272 271 270 269 268 267
258 261 262 263 264 263 265 267 267 267 267 268 268 268 269 269 270 271 271 271 273 273 274 274 274 274 274 274 275 275 274 273 272 273 273 273 272 272 272 271 269 271 271
256 257 258 261 263 264 263 264 266 268 269 268 268 268 269 270 272 273 272 273 274 275 275 275 275 275 275 275 276 276 275 275 275 274 273 273 274 274 273 271 271 273 271
257 258 258 259 260 261 263 264 264 264 265 267 268 268 269 270 271 272 273 273 273 274 275 275 276 276 276 276 276 276 276 276 276 276 275 274 275 276 275 273 271 270 270
260 259 259 260 261 262 262 263 264 266 267 268 268 269 270 270 271 272 273 274 275 275 277 276 276 277 277 277 278 278 278 278 277 277 277 274 273 273 273 273 272 272 271
260 260 259 259 261 262 262 263 263 263 263 267 267 269 270 271 271 271 273 275 275 275 276 277 277 278 278 278 278 278 278 278 278 275 275 275 275 274 274 273 273 271 269
259 259 260 260 260 261 262 264 264 266 266 267 268 270 271 272 272 272 273 274 275 275 276 277 278 277 277 277 277 276 274 274 275 274 274 275 276 276 276 275 274 273 272
260 260 260 260 260 261 261 262 263 265 266 267 268 268 269 271 271 272 273 273 275 276 276 276 276 276 275 274 274 274 274 275 277 278 279 278 278 277 276 275 275 275 275
262 262 262 262 262 261 261 262 263 265 266 267 268 269 270 270 271 272 273 273 274 274 272 271 271 272 273 278 280 281 281 279 278 278 277 277 277 275 276 276 277 276 277
273 272 271 270 271 265 266 266 267 268 267 267 268 269 270 270 271 271 270 270 269 270 271 273 278 280 281 280 277 278 278 277 278 277 276 276 275 275 276 277 277 278 278
275 274 273 272 271 273 269 269 268 268 268 268 267 267 267 267 268 270 272 276 276 275 274 276 276 278 280 279 276 276 275 275 275 275 275 276 276 276 277 278 279 279 278
273 273 273 273 273 272 272 272 272 271 271 272 273 274 274 274 274 275 275 276 277 278 278 277 275 274 274 274 274 275 276 275 275 275 276 275 276 277 279 280 280 282 282
272 272 272 272 273 273 274 274 274 274 275 276 275 275 276 277 277 277 276 274 274 273 273 275 276 276 275 274 275 275 275 275 276 276 275 277 278 280 282 283 284 283 283
273 274 274 275 275 275 276 276 276 276 275 276 276 277 274 273 273 272 273 275 275 274 273 272 272 272 273 274 273 274 275 275 275 277 278 279 280 281 282 283 283 281 280
275 276 276 275 275 275 274 272 272 271 271 271 270 270 271 271 271 271 271 270 270 270 270 270 271 271 271 272 272 273 274 275 276 277 278 280 281 282 283 282 280 278 277
300 298 296 294 291 288 282 277 273 272 271 271 269 269 269 270 271 272 272 271 271 271 271 270 270 270 270 270 271 273 273 274 275 277 279 280 281 281 280 278 277 275 275